Orbital Elements at Epoch 2459200.5 (2020-Dec-17.0) TDB
Reference: JPL 27 (heliocentric ecliptic J2000)
Element | Value | Uncertainty (1-sigma) | Units |
e | .1814748699161819 | 3.9464e-08 | |
a | 2.42614831256657 | 6.7528e-09 | au |
q | 1.985863363146187 | 9.5884e-08 | au |
i | 4.639740877819278 | 4.18e-06 | deg |
node | 124.3558470081396 | 3.6365e-05 | deg |
peri | 188.5958083860244 | 3.755e-05 | deg |
M | 39.47878939629498 | 7.7789e-06 | deg |
tp | 2459049.131407721340 (2020-Jul-18.63140772) | 2.9987e-05 | TDB |
period | 1380.303045093667 3.78 | 5.7628e-06 1.578e-08 | d yr |
n | .2608122913874834 | 1.0889e-09 | deg/d |
Q | 2.866433261986952 | 7.9783e-09 | au |
|
| | Orbit Determination Parameters
Additional Information
|